Location: Eyeline Observatory
(43.2182°N, 78.8632°W)
Time: 03:44:00
(UTC-04:00)

Tiangong 1 - Pass Details

Date: 10 October 2017
Orbit: 292 x 319 km, 42.8° (Epoch: 23 October)

Event Time Altitude Azimuth Distance (km) Brightness Sun altitude
Rises 20:54:31 0° 277° (W) 2,032 6.1 -25.1°
Reaches altitude 10° 20:56:31 10° 273° (W) 1,196 4.5 -25.4°
Enters shadow 20:56:58 14° 271° (W) 1,016 4.1 -25.5°
